| time (UTC) | temp F | wind direction | speed MPH | gust MPH | rain 1hr in | rain 24hr in | rain mn in | humidity % | barometer mb |
| 20260509055817 | 58 | 162 | 2.0 | 5.0 | 0.00 | 0.00 | 0.00 | 52 | 1010.5 |
| 20260509055333 | 58 | 169 | 2.0 | 5.0 | 0.00 | 0.00 | 0.00 | 52 | 1010.5 |
| 20260509054825 | 58 | 197 | 2.0 | 5.0 | 0.00 | 0.00 | 0.00 | 52 | 1010.6 |
| 20260509054316 | 58 | 178 | 3.0 | 6.0 | 0.00 | 0.00 | 0.00 | 52 | 1010.6 |
| 20260509053829 | 58 | 167 | 4.0 | 8.0 | 0.00 | 0.00 | 0.00 | 53 | 1010.6 |
| 20260509053321 | 58 | 164 | 3.0 | 7.0 | 0.00 | 0.00 | 0.00 | 53 | 1010.5 |
| 20260509052832 | 57 | 172 | 4.0 | 7.0 | 0.00 | 0.00 | 0.00 | 53 | 1010.6 |
| 20260509052323 | 58 | 155 | 2.0 | 6.0 | 0.00 | 0.00 | 0.00 | 53 | 1010.6 |
| 20260509051815 | 58 | 119 | 1.0 | 5.0 | 0.00 | 0.00 | 0.00 | 53 | 1010.6 |
| 20260509051330 | 58 | 130 | 2.0 | 8.0 | 0.00 | 0.00 | 0.00 | 53 | 1010.6 |
| 20260509050823 | 58 | 142 | 3.0 | 8.0 | 0.00 | 0.00 | 0.00 | 52 | 1010.6 |
| 20260509050334 | 58 | 182 | 2.0 | 5.0 | 0.00 | 0.00 | 0.00 | 52 | 1010.6 |
| 20260509045823 | 59 | 173 | 2.0 | 6.0 | 0.00 | 0.00 | 0.00 | 52 | 1010.6 |
| 20260509045335 | 59 | 175 | 2.0 | 4.0 | 0.00 | 0.00 | 0.00 | 52 | 1010.4 |
| 20260509044826 | 59 | 155 | 2.0 | 4.0 | 0.00 | 0.00 | 0.00 | 52 | 1010.4 |
| 20260509044318 | 59 | 176 | 2.0 | 4.0 | 0.00 | 0.00 | 0.00 | 52 | 1010.4 |
| 20260509043830 | 59 | 175 | 2.0 | 5.0 | 0.00 | 0.00 | 0.00 | 52 | 1010.4 |
| 20260509043321 | 58 | 169 | 1.0 | 6.0 | 0.00 | 0.00 | 0.00 | 52 | 1010.4 |
| 20260509042853 | 58 | 178 | 3.0 | 6.0 | 0.00 | 0.00 | 0.00 | 53 | 1010.5 |
| 20260509042328 | 58 | 173 | 3.0 | 5.0 | 0.00 | 0.00 | 0.00 | 53 | 1010.5 |
| 20260509041840 | 58 | 165 | 2.0 | 4.0 | 0.00 | 0.00 | 0.00 | 53 | 1010.6 |
| 20260509041331 | 58 | 182 | 1.0 | 5.0 | 0.00 | 0.00 | 0.00 | 52 | 1010.6 |
| 20260509040822 | 59 | 167 | 2.0 | 4.0 | 0.00 | 0.00 | 0.00 | 51 | 1010.6 |
| 20260509040334 | 59 | 163 | 2.0 | 4.0 | 0.00 | 0.00 | 0.00 | 51 | 1010.5 |
| 20260509035823 | 59 | 173 | 2.0 | 5.0 | 0.00 | 0.00 | 0.00 | 51 | 1010.6 |
| 20260509035315 | 59 | 180 | 3.0 | 5.0 | 0.00 | 0.00 | 0.00 | 51 | 1010.5 |
| 20260509034826 | 59 | 169 | 4.0 | 6.0 | 0.00 | 0.00 | 0.00 | 50 | 1010.6 |
| 20260509034317 | 59 | 175 | 2.0 | 4.0 | 0.00 | 0.00 | 0.00 | 49 | 1010.6 |
| 20260509033829 | 59 | 173 | 3.0 | 5.0 | 0.00 | 0.00 | 0.00 | 49 | 1010.6 |
| 20260509033324 | 59 | 161 | 2.0 | 5.0 | 0.00 | 0.00 | 0.00 | 49 | 1010.6 |
| 20260509032816 | 60 | 171 | 1.0 | 4.0 | 0.00 | 0.00 | 0.00 | 49 | 1010.8 |
| 20260509032349 | 60 | 173 | 3.0 | 5.0 | 0.00 | 0.00 | 0.00 | 49 | 1010.9 |
| 20260509031818 | 60 | 165 | 4.0 | 5.0 | 0.00 | 0.00 | 0.00 | 49 | 1010.8 |
| 20260509031330 | 60 | 163 | 0.0 | 3.0 | 0.00 | 0.00 | 0.00 | 49 | 1010.7 |
| 20260509030842 | 59 | 163 | 1.0 | 3.0 | 0.00 | 0.00 | 0.00 | 49 | 1010.8 |
| 20260509030353 | 59 | 164 | 0.0 | 4.0 | 0.00 | 0.00 | 0.00 | 49 | 1010.8 |
| 20260509025822 | 60 | 161 | 0.0 | 2.0 | 0.00 | 0.00 | 0.00 | 51 | 1010.9 |
| 20260509025314 | 61 | 161 | 1.0 | 2.0 | 0.00 | 0.00 | 0.00 | 50 | 1011.1 |
| 20260509024826 | 61 | 161 | 0.0 | 2.0 | 0.00 | 0.00 | 0.00 | 46 | 1011.1 |
| 20260509024321 | 61 | 159 | 1.0 | 2.0 | 0.00 | 0.00 | 0.00 | 45 | 1011.0 |
| 20260509023813 | 61 | 159 | 0.0 | 1.0 | 0.00 | 0.00 | 0.00 | 48 | 1011.0 |
| 20260509023325 | 61 | 159 | 0.0 | 1.0 | 0.00 | 0.00 | 0.00 | 48 | 1011.1 |
| 20260509022817 | 61 | 159 | 0.0 | 1.0 | 0.00 | 0.00 | 0.00 | 46 | 1011.1 |
| 20260509022329 | 61 | 159 | 0.0 | 2.0 | 0.00 | 0.00 | 0.00 | 46 | 1011.1 |
| 20260509021821 | 61 | 159 | 0.0 | 2.0 | 0.00 | 0.00 | 0.00 | 45 | 1011.2 |
| 20260509021333 | 61 | 159 | 0.0 | 3.0 | 0.00 | 0.00 | 0.00 | 45 | 1011.1 |
| 20260509020824 | 61 | 162 | 1.0 | 5.0 | 0.00 | 0.00 | 0.00 | 45 | 1011.1 |
| 20260509020320 | 61 | 161 | 1.0 | 5.0 | 0.00 | 0.00 | 0.00 | 45 | 1011.1 |
| 20260509015850 | 61 | 157 | 1.0 | 2.0 | 0.00 | 0.00 | 0.00 | 46 | 1011.1 |
| 20260509015341 | 61 | 157 | 0.0 | 6.0 | 0.00 | 0.00 | 0.00 | 47 | 1011.0 |
| 20260509014832 | 61 | 157 | 2.0 | 6.0 | 0.00 | 0.00 | 0.00 | 47 | 1011.1 |
| 20260509014344 | 61 | 169 | 1.0 | 5.0 | 0.00 | 0.00 | 0.00 | 46 | 1011.1 |
| 20260509013815 | 60 | 164 | 2.0 | 5.0 | 0.00 | 0.00 | 0.00 | 46 | 1011.0 |
| 20260509013326 | 60 | 129 | 0.0 | 3.0 | 0.00 | 0.00 | 0.00 | 47 | 1011.0 |
| 20260509012818 | 60 | 69 | 0.0 | 3.0 | 0.00 | 0.00 | 0.00 | 47 | 1011.0 |
| 20260509012351 | 60 | 64 | 0.0 | 3.0 | 0.00 | 0.00 | 0.00 | 48 | 1011.0 |
| 20260509011822 | 60 | 75 | 0.0 | 2.0 | 0.00 | 0.00 | 0.00 | 48 | 1011.0 |
| 20260509011318 | 60 | 163 | 0.0 | 0.0 | 0.00 | 0.00 | 0.00 | 47 | 1010.9 |
| 20260509010830 | 61 | 163 | 0.0 | 3.0 | 0.00 | 0.00 | 0.00 | 47 | 1010.9 |
| 20260509010321 | 61 | 163 | 1.0 | 3.0 | 0.00 | 0.00 | 0.00 | 47 | 1010.9 |
| 20260509005851 | 61 | 141 | 0.0 | 2.0 | 0.00 | 0.00 | 0.00 | 46 | 1010.8 |
| 20260509005322 | 60 | 141 | 1.0 | 6.0 | 0.00 | 0.00 | 0.00 | 46 | 1010.9 |
| 20260509004814 | 60 | 142 | 0.0 | 0.0 | 0.00 | 0.00 | 0.00 | 45 | 1010.9 |
| 20260509004326 | 61 | 142 | 0.0 | 1.0 | 0.00 | 0.00 | 0.00 | 46 | 1010.9 |
| 20260509003818 | 61 | 142 | 0.0 | 1.0 | 0.00 | 0.00 | 0.00 | 46 | 1011.0 |
| 20260509003330 | 61 | 146 | 0.0 | 2.0 | 0.00 | 0.00 | 0.00 | 47 | 1011.0 |
| 20260509002825 | 61 | 145 | 0.0 | 7.0 | 0.00 | 0.00 | 0.00 | 47 | 1011.1 |
| 20260509002317 | 61 | 136 | 4.0 | 7.0 | 0.00 | 0.00 | 0.00 | 46 | 1010.9 |
| 20260509001829 | 62 | 20 | 0.0 | 0.0 | 0.00 | 0.00 | 0.00 | 44 | 1010.8 |
| 20260509001322 | 62 | 20 | 0.0 | 1.0 | 0.00 | 0.00 | 0.00 | 44 | 1010.7 |
| 20260509000814 | 62 | 20 | 0.0 | 1.0 | 0.00 | 0.00 | 0.00 | 43 | 1010.7 |
| 20260509000326 | 63 | 20 | 0.0 | 2.0 | 0.00 | 0.00 | 0.00 | 43 | 1010.7 |
| 20260508235815 | 63 | 20 | 0.0 | 1.0 | 0.00 | 0.00 | 0.00 | 43 | 1010.6 |
| 20260508235348 | 63 | 20 | 0.0 | 0.0 | 0.00 | 0.00 | 0.00 | 44 | 1010.6 |
| 20260508234818 | 63 | 20 | 0.0 | 0.0 | 0.00 | 0.00 | 0.00 | 43 | 1010.5 |
| 20260508234314 | 63 | 20 | 0.0 | 2.0 | 0.00 | 0.00 | 0.00 | 44 | 1010.5 |
| 20260508233826 | 63 | 20 | 0.0 | 2.0 | 0.00 | 0.00 | 0.00 | 44 | 1010.5 |
| 20260508233318 | 64 | 20 | 1.0 | 3.0 | 0.00 | 0.00 | 0.00 | 44 | 1010.5 |
| 20260508232830 | 64 | 16 | 1.0 | 5.0 | 0.00 | 0.00 | 0.00 | 43 | 1010.4 |
| 20260508232321 | 64 | 9 | 3.0 | 6.0 | 0.00 | 0.00 | 0.00 | 43 | 1010.3 |
| 20260508231813 | 65 | 9 | 2.0 | 5.0 | 0.00 | 0.00 | 0.00 | 45 | 1010.4 |
| 20260508231325 | 65 | 286 | 2.0 | 5.0 | 0.00 | 0.00 | 0.00 | 41 | 1010.4 |
| 20260508230816 | 65 | 291 | 1.0 | 4.0 | 0.00 | 0.00 | 0.00 | 39 | 1010.4 |
| 20260508230349 | 65 | 291 | 2.0 | 4.0 | 0.00 | 0.00 | 0.00 | 41 | 1010.3 |
| 20260508225822 | 65 | 313 | 0.0 | 7.0 | 0.00 | 0.00 | 0.00 | 39 | 1010.3 |
| 20260508225313 | 65 | 313 | 1.0 | 7.0 | 0.00 | 0.00 | 0.00 | 41 | 1010.3 |
| 20260508224825 | 65 | 304 | 2.0 | 7.0 | 0.00 | 0.00 | 0.00 | 42 | 1010.3 |
| 20260508224317 | 65 | 296 | 3.0 | 7.0 | 0.00 | 0.00 | 0.00 | 40 | 1010.3 |
| 20260508223829 | 66 | 272 | 1.0 | 8.0 | 0.00 | 0.00 | 0.00 | 40 | 1010.4 |
| 20260508223320 | 66 | 288 | 3.0 | 9.0 | 0.00 | 0.00 | 0.00 | 38 | 1010.4 |
| 20260508222852 | 66 | 288 | 6.0 | 9.0 | 0.00 | 0.00 | 0.00 | 39 | 1010.4 |
| 20260508222323 | 66 | 294 | 5.0 | 9.0 | 0.00 | 0.00 | 0.00 | 39 | 1010.4 |
| 20260508221818 | 66 | 270 | 5.0 | 9.0 | 0.00 | 0.00 | 0.00 | 38 | 1010.5 |
| 20260508221330 | 66 | 119 | 3.0 | 8.0 | 0.00 | 0.00 | 0.00 | 40 | 1010.5 |
| 20260508220843 | 66 | 152 | 2.0 | 8.0 | 0.00 | 0.00 | 0.00 | 43 | 1010.4 |
| 20260508220314 | 66 | 267 | 3.0 | 6.0 | 0.00 | 0.00 | 0.00 | 39 | 1010.4 |
| 20260508215824 | 66 | 313 | 2.0 | 7.0 | 0.00 | 0.00 | 0.00 | 40 | 1010.4 |
| 20260508215315 | 66 | 286 | 2.0 | 7.0 | 0.00 | 0.00 | 0.00 | 39 | 1010.4 |
| 20260508214827 | 65 | 48 | 1.0 | 7.0 | 0.00 | 0.00 | 0.00 | 41 | 1010.4 |
| 20260508214319 | 65 | 126 | 2.0 | 5.0 | 0.00 | 0.00 | 0.00 | 39 | 1010.5 |
| 20260508213831 | 66 | 146 | 3.0 | 9.0 | 0.00 | 0.00 | 0.00 | 38 | 1010.5 |
| 20260508213327 | 66 | 14 | 2.0 | 10.0 | 0.00 | 0.00 | 0.00 | 40 | 1010.5 |
| 20260508212819 | 66 | 313 | 5.0 | 11.0 | 0.00 | 0.00 | 0.00 | 40 | 1010.6 |
| 20260508212330 | 66 | 309 | 5.0 | 11.0 | 0.00 | 0.00 | 0.00 | 39 | 1010.6 |
| 20260508211822 | 66 | 22 | 2.0 | 5.0 | 0.00 | 0.00 | 0.00 | 39 | 1010.5 |
| 20260508211335 | 65 | 185 | 3.0 | 7.0 | 0.00 | 0.00 | 0.00 | 42 | 1010.6 |
| 20260508210826 | 65 | 109 | 1.0 | 8.0 | 0.00 | 0.00 | 0.00 | 41 | 1010.8 |
| 20260508210318 | 65 | 298 | 2.0 | 10.0 | 0.00 | 0.00 | 0.00 | 40 | 1010.8 |
| 20260508205848 | 65 | 298 | 4.0 | 10.0 | 0.00 | 0.00 | 0.00 | 38 | 1010.7 |
| 20260508205319 | 66 | 287 | 4.0 | 9.0 | 0.00 | 0.00 | 0.00 | 40 | 1010.7 |
| 20260508204814 | 66 | 293 | 4.0 | 9.0 | 0.00 | 0.00 | 0.00 | 39 | 1010.7 |
| 20260508204327 | 66 | 125 | 2.0 | 6.0 | 0.00 | 0.00 | 0.00 | 40 | 1010.8 |
| 20260508203839 | 66 | 284 | 3.0 | 8.0 | 0.00 | 0.00 | 0.00 | 41 | 1010.8 |
| 20260508203329 | 65 | 273 | 3.0 | 9.0 | 0.00 | 0.00 | 0.00 | 40 | 1010.9 |
| 20260508202821 | 65 | 313 | 3.0 | 12.0 | 0.00 | 0.00 | 0.00 | 37 | 1011.0 |
| 20260508202332 | 65 | 272 | 5.0 | 12.0 | 0.00 | 0.00 | 0.00 | 39 | 1011.0 |
| 20260508201825 | 66 | 260 | 5.0 | 11.0 | 0.00 | 0.00 | 0.00 | 35 | 1010.9 |
| 20260508201336 | 67 | 292 | 8.0 | 11.0 | 0.00 | 0.00 | 0.00 | 34 | 1011.0 |
| 20260508200828 | 67 | 227 | 5.0 | 11.0 | 0.00 | 0.00 | 0.00 | 36 | 1011.1 |
| 20260508200319 | 67 | 30 | 5.0 | 10.0 | 0.00 | 0.00 | 0.00 | 37 | 1011.0 |
| 20260508195835 | 66 | 84 | 3.0 | 14.0 | 0.00 | 0.00 | 0.00 | 37 | 1011.2 |
| 20260508195327 | 67 | 313 | 3.0 | 14.0 | 0.00 | 0.00 | 0.00 | 37 | 1011.3 |
| 20260508194819 | 66 | 309 | 5.0 | 11.0 | 0.00 | 0.00 | 0.00 | 38 | 1011.3 |
| 20260508194331 | 66 | 99 | 4.0 | 9.0 | 0.00 | 0.00 | 0.00 | 38 | 1011.3 |
| 20260508193822 | 66 | 153 | 4.0 | 9.0 | 0.00 | 0.00 | 0.00 | 38 | 1011.3 |
| 20260508193313 | 66 | 306 | 4.0 | 13.0 | 0.00 | 0.00 | 0.00 | 38 | 1011.3 |
| 20260508192827 | 66 | 305 | 4.0 | 15.0 | 0.00 | 0.00 | 0.00 | 36 | 1011.4 |
| 20260508192318 | 67 | 291 | 7.0 | 15.0 | 0.00 | 0.00 | 0.00 | 35 | 1011.4 |
| 20260508191813 | 67 | 271 | 3.0 | 12.0 | 0.00 | 0.00 | 0.00 | 35 | 1011.4 |
| 20260508191325 | 67 | 165 | 4.0 | 13.0 | 0.00 | 0.00 | 0.00 | 34 | 1011.6 |
| 20260508190816 | 69 | 309 | 6.0 | 13.0 | 0.00 | 0.00 | 0.00 | 33 | 1011.6 |
| 20260508190349 | 69 | 170 | 6.0 | 10.0 | 0.00 | 0.00 | 0.00 | 34 | 1011.8 |
| 20260508185839 | 69 | 168 | 5.0 | 15.0 | 0.00 | 0.00 | 0.00 | 34 | 1011.6 |
| 20260508185350 | 69 | 163 | 7.0 | 12.0 | 0.00 | 0.00 | 0.00 | 36 | 1011.7 |
| 20260508184821 | 68 | 146 | 6.0 | 11.0 | 0.00 | 0.00 | 0.00 | 35 | 1012.0 |
| 20260508184313 | 67 | 66 | 4.0 | 13.0 | 0.00 | 0.00 | 0.00 | 34 | 1012.0 |
| 20260508183824 | 67 | 294 | 5.0 | 13.0 | 0.00 | 0.00 | 0.00 | 37 | 1012.0 |
| 20260508183337 | 67 | 9 | 6.0 | 14.0 | 0.00 | 0.00 | 0.00 | 36 | 1012.0 |
| 20260508182828 | 67 | 281 | 5.0 | 14.0 | 0.00 | 0.00 | 0.00 | 40 | 1012.1 |
| 20260508182324 | 66 | 107 | 4.0 | 10.0 | 0.00 | 0.00 | 0.00 | 36 | 1012.1 |
| 20260508181816 | 65 | 140 | 5.0 | 11.0 | 0.00 | 0.00 | 0.00 | 38 | 1012.1 |
| 20260508181348 | 65 | 182 | 6.0 | 11.0 | 0.00 | 0.00 | 0.00 | 38 | 1012.2 |
| 20260508180818 | 66 | 184 | 5.0 | 11.0 | 0.00 | 0.00 | 0.00 | 37 | 1012.3 |
| 20260508180330 | 65 | 123 | 5.0 | 9.0 | 0.00 | 0.00 | 0.00 | 40 | 1012.4 |
| 20260508175822 | 64 | 144 | 4.0 | 9.0 | 0.00 | 0.00 | 0.00 | 40 | 1012.3 |
| 20260508175314 | 64 | 119 | 4.0 | 12.0 | 0.00 | 0.00 | 0.00 | 41 | 1012.3 |
| 20260508174826 | 64 | 146 | 4.0 | 12.0 | 0.00 | 0.00 | 0.00 | 36 | 1012.5 |
| 20260508174318 | 65 | 286 | 5.0 | 9.0 | 0.00 | 0.00 | 0.00 | 35 | 1012.7 |
| 20260508173813 | 64 | 124 | 4.0 | 9.0 | 0.00 | 0.00 | 0.00 | 40 | 1012.8 |
| 20260508173325 | 65 | 126 | 4.0 | 11.0 | 0.00 | 0.00 | 0.00 | 35 | 1012.8 |
| 20260508172817 | 65 | 112 | 5.0 | 11.0 | 0.00 | 0.00 | 0.00 | 34 | 1012.8 |
| 20260508172329 | 65 | 163 | 5.0 | 13.0 | 0.00 | 0.00 | 0.00 | 39 | 1012.8 |
| 20260508171821 | 64 | 315 | 6.0 | 13.0 | 0.00 | 0.00 | 0.00 | 37 | 1012.7 |
| 20260508171314 | 64 | 63 | 3.0 | 10.0 | 0.00 | 0.00 | 0.00 | 42 | 1012.9 |
| 20260508170826 | 63 | 136 | 4.0 | 13.0 | 0.00 | 0.00 | 0.00 | 39 | 1012.9 |
| 20260508170339 | 63 | 279 | 4.0 | 13.0 | 0.00 | 0.00 | 0.00 | 38 | 1013.0 |
| 20260508165813 | 63 | 315 | 6.0 | 16.0 | 0.00 | 0.00 | 0.00 | 36 | 1013.0 |
| 20260508165345 | 63 | 146 | 7.0 | 16.0 | 0.00 | 0.00 | 0.00 | 39 | 1013.0 |
| 20260508164816 | 62 | 42 | 4.0 | 11.0 | 0.00 | 0.00 | 0.00 | 42 | 1013.0 |
| 20260508164348 | 62 | 51 | 3.0 | 11.0 | 0.00 | 0.00 | 0.00 | 38 | 1013.2 |
| 20260508163819 | 62 | 133 | 2.0 | 11.0 | 0.00 | 0.00 | 0.00 | 41 | 1013.3 |
| 20260508163331 | 61 | 157 | 5.0 | 13.0 | 0.00 | 0.00 | 0.00 | 40 | 1013.4 |
| 20260508162824 | 62 | 156 | 5.0 | 13.0 | 0.00 | 0.00 | 0.00 | 41 | 1013.4 |
| 20260508162337 | 62 | 153 | 7.0 | 14.0 | 0.00 | 0.00 | 0.00 | 40 | 1013.4 |
| 20260508161848 | 61 | 171 | 8.0 | 14.0 | 0.00 | 0.00 | 0.00 | 40 | 1013.5 |
| 20260508161319 | 61 | 36 | 3.0 | 9.0 | 0.00 | 0.00 | 0.00 | 42 | 1013.7 |
| 20260508160830 | 61 | 130 | 4.0 | 9.0 | 0.00 | 0.00 | 0.00 | 43 | 1013.6 |
| 20260508160326 | 61 | 175 | 4.0 | 14.0 | 0.00 | 0.00 | 0.00 | 46 | 1013.7 |
| 20260508155817 | 61 | 130 | 3.0 | 8.0 | 0.00 | 0.00 | 0.00 | 45 | 1013.8 |
| 20260508155329 | 61 | 163 | 3.0 | 8.0 | 0.00 | 0.00 | 0.00 | 44 | 1013.8 |
| 20260508154820 | 61 | 186 | 3.0 | 11.0 | 0.00 | 0.00 | 0.00 | 41 | 1013.9 |
| 20260508154333 | 62 | 140 | 3.0 | 12.0 | 0.00 | 0.00 | 0.00 | 41 | 1013.8 |
| 20260508153825 | 62 | 178 | 6.0 | 12.0 | 0.00 | 0.00 | 0.00 | 42 | 1013.9 |
| 20260508153316 | 62 | 128 | 6.0 | 12.0 | 0.00 | 0.00 | 0.00 | 44 | 1013.9 |
| 20260508152829 | 61 | 180 | 6.0 | 17.0 | 0.00 | 0.00 | 0.00 | 46 | 1013.9 |
| 20260508152324 | 61 | 311 | 11.0 | 17.0 | 0.00 | 0.00 | 0.00 | 41 | 1013.7 |
| 20260508151815 | 61 | 142 | 5.0 | 11.0 | 0.00 | 0.00 | 0.00 | 43 | 1013.8 |
| 20260508151328 | 61 | 159 | 6.0 | 12.0 | 0.00 | 0.00 | 0.00 | 43 | 1013.8 |
| 20260508150820 | 61 | 32 | 5.0 | 13.0 | 0.00 | 0.00 | 0.00 | 44 | 1013.9 |
| 20260508150333 | 61 | 291 | 5.0 | 12.0 | 0.00 | 0.00 | 0.00 | 45 | 1013.9 |
| 20260508145822 | 60 | 137 | 5.0 | 13.0 | 0.00 | 0.00 | 0.00 | 45 | 1014.0 |
| 20260508145313 | 60 | 96 | 5.0 | 13.0 | 0.00 | 0.00 | 0.00 | 42 | 1014.1 |
| 20260508144847 | 60 | 149 | 4.0 | 13.0 | 0.00 | 0.00 | 0.00 | 43 | 1014.1 |
| 20260508144317 | 59 | 312 | 6.0 | 13.0 | 0.00 | 0.00 | 0.00 | 43 | 1014.1 |
| 20260508143814 | 59 | 173 | 3.0 | 11.0 | 0.00 | 0.00 | 0.00 | 45 | 1014.1 |
| 20260508143327 | 60 | 313 | 4.0 | 11.0 | 0.00 | 0.00 | 0.00 | 43 | 1014.2 |
| 20260508142818 | 60 | 171 | 4.0 | 10.0 | 0.00 | 0.00 | 0.00 | 45 | 1014.1 |
| 20260508142330 | 59 | 161 | 5.0 | 12.0 | 0.00 | 0.00 | 0.00 | 45 | 1014.0 |
| 20260508141822 | 58 | 150 | 7.0 | 12.0 | 0.00 | 0.00 | 0.00 | 44 | 1014.1 |
| 20260508141334 | 58 | 132 | 8.0 | 13.0 | 0.00 | 0.00 | 0.00 | 44 | 1014.1 |
| 20260508140846 | 58 | 212 | 7.0 | 13.0 | 0.00 | 0.00 | 0.00 | 42 | 1014.1 |
| 20260508140317 | 58 | 190 | 4.0 | 11.0 | 0.00 | 0.00 | 0.00 | 47 | 1014.2 |
| 20260508135827 | 58 | 194 | 5.0 | 11.0 | 0.00 | 0.00 | 0.00 | 47 | 1014.2 |
| 20260508135323 | 58 | 146 | 6.0 | 12.0 | 0.00 | 0.00 | 0.00 | 46 | 1014.2 |
| 20260508134835 | 57 | 161 | 6.0 | 11.0 | 0.00 | 0.00 | 0.00 | 47 | 1014.3 |
| 20260508134327 | 57 | 128 | 5.0 | 11.0 | 0.00 | 0.00 | 0.00 | 47 | 1014.2 |
| 20260508133818 | 57 | 180 | 7.0 | 12.0 | 0.00 | 0.00 | 0.00 | 46 | 1014.3 |
| 20260508133330 | 56 | 177 | 6.0 | 9.0 | 0.00 | 0.00 | 0.00 | 51 | 1014.3 |
| 20260508132822 | 56 | 182 | 6.0 | 9.0 | 0.00 | 0.00 | 0.00 | 48 | 1014.3 |
| 20260508132315 | 56 | 175 | 6.0 | 12.0 | 0.00 | 0.00 | 0.00 | 47 | 1014.3 |
| 20260508131827 | 55 | 166 | 7.0 | 11.0 | 0.00 | 0.00 | 0.00 | 53 | 1014.3 |
| 20260508131319 | 54 | 183 | 7.0 | 11.0 | 0.00 | 0.00 | 0.00 | 49 | 1014.4 |
| 20260508130814 | 54 | 180 | 6.0 | 10.0 | 0.00 | 0.00 | 0.00 | 51 | 1014.4 |
| 20260508130327 | 54 | 169 | 5.0 | 10.0 | 0.00 | 0.00 | 0.00 | 51 | 1014.4 |
| 20260508125817 | 54 | 148 | 5.0 | 10.0 | 0.00 | 0.00 | 0.00 | 53 | 1014.4 |
| 20260508125330 | 53 | 186 | 5.0 | 10.0 | 0.00 | 0.00 | 0.00 | 54 | 1014.4 |
| 20260508124823 | 52 | 166 | 6.0 | 11.0 | 0.00 | 0.00 | 0.00 | 55 | 1014.4 |
| 20260508124316 | 52 | 167 | 5.0 | 12.0 | 0.00 | 0.00 | 0.00 | 55 | 1014.5 |
| 20260508123848 | 51 | 182 | 5.0 | 12.0 | 0.00 | 0.00 | 0.00 | 57 | 1014.5 |
| 20260508123319 | 51 | 178 | 5.0 | 11.0 | 0.00 | 0.00 | 0.00 | 57 | 1014.5 |
| 20260508122852 | 50 | 165 | 6.0 | 10.0 | 0.00 | 0.00 | 0.00 | 59 | 1014.5 |
| 20260508122327 | 49 | 178 | 5.0 | 9.0 | 0.00 | 0.00 | 0.00 | 60 | 1014.4 |
| 20260508121818 | 49 | 179 | 5.0 | 8.0 | 0.00 | 0.00 | 0.00 | 60 | 1014.5 |
| 20260508121331 | 48 | 173 | 5.0 | 11.0 | 0.00 | 0.00 | 0.00 | 59 | 1014.5 |
| 20260508120823 | 48 | 167 | 6.0 | 12.0 | 0.00 | 0.00 | 0.00 | 57 | 1014.4 |
| 20260508120313 | 48 | 168 | 5.0 | 12.0 | 0.00 | 0.00 | 0.00 | 58 | 1014.4 |
| 20260508115823 | 48 | 169 | 6.0 | 9.0 | 0.00 | 0.00 | 0.00 | 58 | 1014.4 |
| 20260508115315 | 48 | 180 | 6.0 | 11.0 | 0.00 | 0.00 | 0.00 | 58 | 1014.4 |
| 20260508114828 | 48 | 169 | 5.0 | 11.0 | 0.00 | 0.00 | 0.00 | 59 | 1014.3 |
| 20260508114324 | 47 | 142 | 4.0 | 10.0 | 0.00 | 0.00 | 0.00 | 60 | 1014.3 |
| 20260508113815 | 47 | 156 | 5.0 | 10.0 | 0.00 | 0.00 | 0.00 | 58 | 1014.2 |
| 20260508113327 | 47 | 167 | 5.0 | 8.0 | 0.00 | 0.00 | 0.00 | 59 | 1014.2 |
| 20260508112819 | 47 | 167 | 2.0 | 8.0 | 0.00 | 0.00 | 0.00 | 60 | 1014.2 |
| 20260508112332 | 47 | 170 | 4.0 | 8.0 | 0.00 | 0.00 | 0.00 | 59 | 1014.1 |
| 20260508111824 | 47 | 172 | 4.0 | 6.0 | 0.00 | 0.00 | 0.00 | 59 | 1014.1 |
| 20260508111316 | 47 | 172 | 4.0 | 8.0 | 0.00 | 0.00 | 0.00 | 60 | 1014.0 |
| 20260508110827 | 46 | 178 | 5.0 | 8.0 | 0.00 | 0.00 | 0.00 | 60 | 1013.9 |
| 20260508110323 | 46 | 190 | 4.0 | 6.0 | 0.00 | 0.00 | 0.00 | 61 | 1013.8 |
| 20260508105813 | 46 | 157 | 4.0 | 6.0 | 0.00 | 0.00 | 0.00 | 61 | 1013.8 |
| 20260508105326 | 46 | 175 | 4.0 | 8.0 | 0.00 | 0.00 | 0.00 | 62 | 1013.8 |
| 20260508104837 | 45 | 178 | 4.0 | 7.0 | 0.00 | 0.00 | 0.00 | 63 | 1013.7 |
| 20260508104348 | 45 | 165 | 4.0 | 6.0 | 0.00 | 0.00 | 0.00 | 63 | 1013.7 |
| 20260508103819 | 45 | 178 | 4.0 | 6.0 | 0.00 | 0.00 | 0.00 | 63 | 1013.5 |
| 20260508103331 | 44 | 180 | 4.0 | 7.0 | 0.00 | 0.00 | 0.00 | 63 | 1013.6 |
| 20260508102823 | 44 | 170 | 4.0 | 7.0 | 0.00 | 0.00 | 0.00 | 62 | 1013.6 |
| 20260508102315 | 45 | 175 | 4.0 | 7.0 | 0.00 | 0.00 | 0.00 | 62 | 1013.4 |
| 20260508101828 | 45 | 163 | 3.0 | 7.0 | 0.00 | 0.00 | 0.00 | 62 | 1013.4 |
| 20260508101323 | 45 | 172 | 3.0 | 6.0 | 0.00 | 0.00 | 0.00 | 61 | 1013.3 |
| 20260508100816 | 45 | 169 | 4.0 | 7.0 | 0.00 | 0.00 | 0.00 | 60 | 1013.2 |
| 20260508100348 | 45 | 169 | 4.0 | 6.0 | 0.00 | 0.00 | 0.00 | 60 | 1013.2 |
| 20260508095815 | 45 | 167 | 3.0 | 6.0 | 0.00 | 0.00 | 0.00 | 60 | 1013.2 |
| 20260508095327 | 45 | 169 | 3.0 | 6.0 | 0.00 | 0.00 | 0.00 | 60 | 1013.2 |
| 20260508094818 | 45 | 163 | 3.0 | 6.0 | 0.00 | 0.00 | 0.00 | 60 | 1013.3 |
| 20260508094331 | 45 | 169 | 4.0 | 6.0 | 0.00 | 0.00 | 0.00 | 60 | 1013.3 |
| 20260508093823 | 45 | 169 | 3.0 | 6.0 | 0.00 | 0.00 | 0.00 | 60 | 1013.4 |
| 20260508093319 | 45 | 168 | 4.0 | 6.0 | 0.00 | 0.00 | 0.00 | 60 | 1013.4 |
| 20260508092831 | 45 | 171 | 1.0 | 4.0 | 0.00 | 0.00 | 0.00 | 59 | 1013.4 |
| 20260508092324 | 45 | 168 | 2.0 | 5.0 | 0.00 | 0.00 | 0.00 | 59 | 1013.3 |
| 20260508091835 | 45 | 169 | 2.0 | 5.0 | 0.00 | 0.00 | 0.00 | 59 | 1013.2 |
| 20260508091326 | 46 | 180 | 1.0 | 3.0 | 0.00 | 0.00 | 0.00 | 59 | 1013.1 |
| 20260508090817 | 46 | 171 | 2.0 | 5.0 | 0.00 | 0.00 | 0.00 | 58 | 1013.1 |
| 20260508090329 | 46 | 169 | 2.0 | 5.0 | 0.00 | 0.00 | 0.00 | 59 | 1013.2 |
| 20260508085819 | 46 | 163 | 2.0 | 5.0 | 0.00 | 0.00 | 0.00 | 59 | 1013.0 |
| 20260508085332 | 46 | 175 | 2.0 | 5.0 | 0.00 | 0.00 | 0.00 | 59 | 1013.0 |
| 20260508084827 | 45 | 165 | 2.0 | 4.0 | 0.00 | 0.00 | 0.00 | 59 | 1013.0 |
| 20260508084319 | 45 | 158 | 2.0 | 3.0 | 0.00 | 0.00 | 0.00 | 59 | 1012.9 |
| 20260508083831 | 45 | 146 | 1.0 | 2.0 | 0.00 | 0.00 | 0.00 | 59 | 1012.9 |
| 20260508083323 | 45 | 146 | 0.0 | 2.0 | 0.00 | 0.00 | 0.00 | 59 | 1012.8 |
| 20260508082835 | 45 | 146 | 0.0 | 2.0 | 0.00 | 0.00 | 0.00 | 59 | 1012.8 |
| 20260508082325 | 46 | 56 | 0.0 | 1.0 | 0.00 | 0.00 | 0.00 | 59 | 1012.7 |
| 20260508081817 | 46 | 45 | 0.0 | 1.0 | 0.00 | 0.00 | 0.00 | 59 | 1012.6 |
| 20260508081329 | 46 | 48 | 0.0 | 2.0 | 0.00 | 0.00 | 0.00 | 59 | 1012.7 |
| 20260508080820 | 46 | 48 | 0.0 | 2.0 | 0.00 | 0.00 | 0.00 | 58 | 1012.5 |
| 20260508080316 | 46 | 286 | 1.0 | 2.0 | 0.00 | 0.00 | 0.00 | 58 | 1012.6 |
| 20260508075827 | 46 | 294 | 1.0 | 4.0 | 0.00 | 0.00 | 0.00 | 58 | 1012.6 |
| 20260508075338 | 46 | 306 | 1.0 | 4.0 | 0.00 | 0.00 | 0.00 | 58 | 1012.7 |
| 20260508074829 | 46 | 284 | 2.0 | 4.0 | 0.00 | 0.00 | 0.00 | 58 | 1012.7 |
| 20260508074321 | 46 | 288 | 1.0 | 4.0 | 0.00 | 0.00 | 0.00 | 58 | 1012.8 |
| 20260508073316 | 47 | 281 | 1.0 | 4.0 | 0.00 | 0.00 | 0.00 | 58 | 1012.8 |
| 20260508072828 | 47 | 259 | 1.0 | 6.0 | 0.00 | 0.00 | 0.00 | 57 | 1012.8 |
| 20260508072320 | 47 | 273 | 1.0 | 7.0 | 0.00 | 0.00 | 0.00 | 57 | 1012.8 |
| 20260508071816 | 47 | 282 | 3.0 | 7.0 | 0.00 | 0.00 | 0.00 | 57 | 1012.7 |
| 20260508071327 | 47 | 279 | 3.0 | 7.0 | 0.00 | 0.00 | 0.00 | 57 | 1012.8 |
| 20260508070818 | 47 | 282 | 3.0 | 8.0 | 0.00 | 0.00 | 0.00 | 57 | 1012.7 |
| 20260508070351 | 47 | 281 | 4.0 | 7.0 | 0.00 | 0.00 | 0.00 | 57 | 1012.7 |
| 20260508065819 | 47 | 258 | 1.0 | 5.0 | 0.00 | 0.00 | 0.00 | 57 | 1012.7 |
| 20260508065351 | 47 | 300 | 2.0 | 4.0 | 0.00 | 0.00 | 0.00 | 57 | 1012.7 |
| 20260508064822 | 47 | 291 | 1.0 | 6.0 | 0.00 | 0.00 | 0.00 | 57 | 1012.7 |
| 20260508064314 | 47 | 242 | 2.0 | 6.0 | 0.00 | 0.00 | 0.00 | 57 | 1012.7 |
| 20260508063846 | 48 | 242 | 0.0 | 3.0 | 0.00 | 0.00 | 0.00 | 57 | 1012.7 |
| 20260508063337 | 48 | 282 | 2.0 | 3.0 | 0.00 | 0.00 | 0.00 | 56 | 1012.7 |
| 20260508062826 | 48 | 281 | 2.0 | 3.0 | 0.00 | 0.00 | 0.00 | 56 | 1012.7 |
| 20260508062321 | 48 | 288 | 1.0 | 5.0 | 0.00 | 0.00 | 0.00 | 56 | 1012.7 |
| 20260508061813 | 48 | 274 | 1.0 | 4.0 | 0.00 | 0.00 | 0.00 | 56 | 1012.7 |
| 20260508061345 | 48 | 284 | 1.0 | 7.0 | 0.00 | 0.00 | 0.00 | 56 | 1012.6 |
| 20260508060817 | 48 | 270 | 3.0 | 7.0 | 0.00 | 0.00 | 0.00 | 55 | 1012.6 |
| 20260508060329 | 48 | 294 | 2.0 | 8.0 | 0.00 | 0.00 | 0.00 | 56 | 1012.5 |